User: anonymous   Login
Location: Chequamegon National Forest
(46.1070°N, 90.8420°W)
Time: 21:22:18
(UTC-06:00)
Language:

ISS - Orbit

View from above orbital plane
View from above orbital plane
View from above satellite
View from above satellite

Ground track
Ground track

The orbit data is extracted from the following two-line orbital elements,

1 25544U 98067A   14327.03699090  .00027535  00000-0  46488-3 0  4465
2 25544 051.6477 032.0489 0007019 057.2135 008.4750 15.51395573915977
Epoch (UTC): 23 November 2014 00:53:16
Eccentricity: 0.0007019
inclination: 51.6477°
perigee height: 408 km
apogee height: 417 km
right ascension of ascending node: 32.0489°
argument of perigee: 57.2135°
revolutions per day: 15.51395573
mean anomaly at epoch: 8.4750°
orbit number at epoch: 91597

The dashed part of the orbit path shows where the satellite is in the earth's shadow,  

DLR